Check out our new BloomSky Weather System.

Active alerts


No alerts


Thunder radar  blitzortung!


Rain radar more information rain snow radar


Visit our other weather sites:

Template documentation
and downloads

And another site



Weather Underground History page Text

Daily Summary for April 9, 2017 Units:  English    Metric   Both
« Previous Day
Next Day »
Daily Weekly Monthly Yearly Custom
  High: Low: Average:
Temperature: TemperatureF °F 60.1 °F 72.5 °F
Dew Point: DewpointF °F 57.7 °F 62.8 °F
Humidity: Humidity % 50 % 73 %
Wind Speed: WindSpeedMPH mph 0.0 mph 5.4 mph
Wind Gust: WindSpeedGustMPH mph - -
Wind:- - SSE
Pressure: PressureIn in 29.89 in -
Precipitation: 0.00 in    
Historical Graphs
 
 
Tabular Data for April 9, 2017
Time Temperature Dew Point Pressure Wind Wind Speed Wind Gust Humidity Rainfall Rate (Hourly)
TemperatureF °F DewpointF °F PressureIn in Calm     Humidity % HourlyPrecipIn in
00:02 67.5 °F 59.2 °F 29.98 in SSW 6.0 mph 8.0 mph 75 % 0.00 in
00:07 67.5 °F 59.2 °F 29.98 in SSW 3.0 mph 8.0 mph 75 % 0.00 in
00:12 67.3 °F 59.5 °F 29.98 in ESE 8.0 mph 8.0 mph 76 % 0.00 in
00:17 67.3 °F 59.5 °F 29.98 in SSE 4.0 mph 8.0 mph 76 % 0.00 in
00:22 67.3 °F 59.5 °F 29.98 in SSE 4.0 mph 9.0 mph 76 % 0.00 in
00:27 67.3 °F 59.5 °F 29.98 in SSE 3.0 mph 9.0 mph 76 % 0.00 in
00:32 67.1 °F 59.7 °F 29.98 in South 4.0 mph 9.0 mph 77 % 0.00 in
00:37 67.3 °F 59.9 °F 29.97 in SE 2.0 mph 9.0 mph 77 % 0.00 in
00:42 67.1 °F 59.7 °F 29.97 in South 3.0 mph 8.0 mph 77 % 0.00 in
00:47 66.9 °F 59.5 °F 29.97 in SE 3.0 mph 8.0 mph 77 % 0.00 in
00:52 66.9 °F 59.9 °F 29.97 in SSW 1.0 mph 7.0 mph 78 % 0.00 in
00:57 66.7 °F 59.7 °F 29.97 in SE 4.0 mph 7.0 mph 78 % 0.00 in
01:02 66.9 °F 59.9 °F 29.97 in SSE 2.0 mph 8.0 mph 78 % 0.00 in
01:07 66.9 °F 59.9 °F 29.96 in SE 4.0 mph 8.0 mph 78 % 0.00 in
01:12 66.9 °F 59.9 °F 29.96 in SSE 4.0 mph 8.0 mph 78 % 0.00 in
01:17 66.7 °F 59.7 °F 29.96 in SSE 4.0 mph 8.0 mph 78 % 0.00 in
01:22 66.7 °F 60.1 °F 29.96 in ESE 2.0 mph 8.0 mph 79 % 0.00 in
01:27 66.7 °F 60.1 °F 29.96 in South 2.0 mph 8.0 mph 79 % 0.00 in
01:32 66.6 °F 59.9 °F 29.96 in SE 2.0 mph 6.0 mph 79 % 0.00 in
01:42 66.6 °F 60.3 °F 29.96 in SE 4.0 mph 6.0 mph 80 % 0.00 in
01:47 66.4 °F 60.1 °F 29.96 in South 4.0 mph 6.0 mph 80 % 0.00 in
01:52 66.4 °F 60.1 °F 29.96 in SSE 2.0 mph 7.0 mph 80 % 0.00 in
01:57 66.2 °F 59.9 °F 29.96 in SSE 1.0 mph 7.0 mph 80 % 0.00 in
02:02 66.0 °F 60.1 °F 29.96 in SE 2.0 mph 7.0 mph 81 % 0.00 in
02:07 66.0 °F 60.1 °F 29.95 in SE 1.0 mph 6.0 mph 81 % 0.00 in
02:12 66.0 °F 60.1 °F 29.95 in SE 2.0 mph 6.0 mph 81 % 0.00 in
02:17 66.0 °F 60.1 °F 29.95 in SSE 2.0 mph 6.0 mph 81 % 0.00 in
02:22 66.0 °F 60.1 °F 29.95 in SSE 4.0 mph 6.0 mph 81 % 0.00 in
02:24 66.0 °F 60.1 °F 29.94 in SE 4.0 mph 6.0 mph 81 % 0.00 in
02:29 66.0 °F 60.1 °F 29.94 in South 2.0 mph 6.0 mph 81 % 0.00 in
02:34 65.8 °F 59.9 °F 29.94 in SSE 1.0 mph 6.0 mph 81 % 0.00 in
02:39 65.8 °F 60.3 °F 29.94 in South 1.0 mph 6.0 mph 82 % 0.00 in
02:44 65.7 °F 60.1 °F 29.94 in SSE 2.0 mph 5.0 mph 82 % 0.00 in
02:49 65.7 °F 60.1 °F 29.94 in SE 1.0 mph 4.0 mph 82 % 0.00 in
02:54 65.5 °F 59.9 °F 29.94 in South 2.0 mph 4.0 mph 82 % 0.00 in
02:59 65.5 °F 59.9 °F 29.94 in South 2.0 mph 5.0 mph 82 % 0.00 in
03:04 65.5 °F 59.9 °F 29.94 in South 2.0 mph 5.0 mph 82 % 0.00 in
03:09 65.5 °F 60.3 °F 29.94 in SSE 2.0 mph 5.0 mph 83 % 0.00 in
03:14 65.5 °F 60.3 °F 29.94 in SSE 3.0 mph 5.0 mph 83 % 0.00 in
03:19 65.5 °F 60.3 °F 29.93 in SSE 2.0 mph 6.0 mph 83 % 0.00 in
03:24 65.3 °F 60.1 °F 29.93 in SSE 1.0 mph 6.0 mph 83 % 0.00 in
03:29 65.3 °F 60.1 °F 29.93 in SE 3.0 mph 6.0 mph 83 % 0.00 in
03:34 65.3 °F 60.1 °F 29.93 in SW 2.0 mph 5.0 mph 83 % 0.00 in
03:39 65.1 °F 59.9 °F 29.93 in SW 2.0 mph 5.0 mph 83 % 0.00 in
03:44 65.1 °F 59.9 °F 29.93 in SSW 1.0 mph 5.0 mph 83 % 0.00 in
03:49 65.1 °F 60.1 °F 29.93 in SE 2.0 mph 4.0 mph 84 % 0.00 in
03:54 65.1 °F 60.1 °F 29.93 in SSE 1.0 mph 4.0 mph 84 % 0.00 in
03:59 64.9 °F 59.9 °F 29.93 in South 1.0 mph 4.0 mph 84 % 0.00 in
04:04 64.8 °F 59.9 °F 29.93 in SSE 2.0 mph 4.0 mph 84 % 0.00 in
04:09 64.8 °F 59.9 °F 29.93 in South 1.0 mph 3.0 mph 84 % 0.00 in
04:14 64.6 °F 59.9 °F 29.93 in South 1.0 mph 3.0 mph 85 % 0.00 in
04:19 64.2 °F 59.5 °F 29.93 in SSE 1.0 mph 3.0 mph 85 % 0.00 in
04:24 64.2 °F 59.5 °F 29.93 in SSE 1.0 mph 2.0 mph 85 % 0.00 in
04:29 64.0 °F 59.4 °F 29.93 in Calm   2.0 mph 85 % 0.00 in
04:34 63.9 °F 59.5 °F 29.93 in Calm   2.0 mph 86 % 0.00 in
04:39 63.9 °F 59.5 °F 29.93 in Calm   2.0 mph 86 % 0.00 in
04:44 63.7 °F 59.4 °F 29.93 in Calm   2.0 mph 86 % 0.00 in
04:48 63.7 °F 59.7 °F 29.93 in Calm   1.0 mph 87 % 0.00 in
04:53 63.3 °F 59.4 °F 29.93 in Calm   1.0 mph 87 % 0.00 in
04:58 63.1 °F 59.2 °F 29.93 in SE 1.0 mph 1.0 mph 87 % 0.00 in
05:03 63.1 °F 59.5 °F 29.93 in Calm   1.0 mph 88 % 0.00 in
05:08 63.1 °F 59.5 °F 29.93 in Calm   1.0 mph 88 % 0.00 in
05:13 63.0 °F 59.4 °F 29.93 in Calm   1.0 mph 88 % 0.00 in
05:18 62.8 °F 59.2 °F 29.93 in Calm   1.0 mph 88 % 0.00 in
05:23 62.6 °F 59.0 °F 29.93 in Calm   1.0 mph 88 % 0.00 in
05:28 62.4 °F 59.2 °F 29.93 in Calm   1.0 mph 89 % 0.00 in
05:33 62.2 °F 59.0 °F 29.93 in Calm   1.0 mph 89 % 0.00 in
05:38 61.9 °F 58.6 °F 29.93 in Calm   1.0 mph 89 % 0.00 in
05:43 61.7 °F 58.5 °F 29.93 in Calm   1.0 mph 89 % 0.00 in
05:48 61.5 °F 58.3 °F 29.93 in Calm     89 % 0.00 in
05:53 61.3 °F 58.5 °F 29.93 in Calm     90 % 0.00 in
05:56 61.2 °F 58.3 °F 29.93 in Calm     90 % 0.00 in
06:01 61.2 °F 58.5 °F 29.93 in Calm   1.0 mph 91 % 0.00 in
06:06 61.3 °F 58.6 °F 29.93 in Calm   1.0 mph 91 % 0.00 in
06:11 61.2 °F 58.5 °F 29.93 in Calm   1.0 mph 91 % 0.00 in
06:16 61.0 °F 58.3 °F 29.93 in Calm   1.0 mph 91 % 0.00 in
06:22 60.6 °F 57.9 °F 29.93 in Calm   1.0 mph 91 % 0.00 in
06:27 60.4 °F 58.1 °F 29.93 in Calm   1.0 mph 92 % 0.00 in
06:32 60.4 °F 58.1 °F 29.93 in Calm     92 % 0.00 in
06:37 60.3 °F 57.9 °F 29.93 in Calm     92 % 0.00 in
06:42 60.1 °F 57.7 °F 29.94 in Calm     92 % 0.00 in
06:47 60.3 °F 58.3 °F 29.94 in Calm   1.0 mph 93 % 0.00 in
06:52 60.6 °F 58.6 °F 29.93 in Calm   1.0 mph 93 % 0.00 in
06:57 60.8 °F 59.0 °F 29.93 in Calm   1.0 mph 94 % 0.00 in
07:02 61.0 °F 59.2 °F 29.93 in Calm   1.0 mph 94 % 0.00 in
07:07 61.2 °F 59.4 °F 29.94 in Calm   1.0 mph 94 % 0.00 in
07:12 61.2 °F 59.2 °F 29.94 in Calm   1.0 mph 93 % 0.00 in
07:17 61.2 °F 59.2 °F 29.94 in Calm   1.0 mph 93 % 0.00 in
07:22 61.2 °F 59.4 °F 29.94 in Calm   1.0 mph 94 % 0.00 in
07:27 61.3 °F 59.5 °F 29.94 in Calm   2.0 mph 94 % 0.00 in
07:32 61.9 °F 60.1 °F 29.94 in SE 1.0 mph 2.0 mph 94 % 0.00 in
07:37 62.2 °F 60.4 °F 29.94 in Calm   2.0 mph 94 % 0.00 in
07:42 62.8 °F 61.0 °F 29.94 in SE 1.0 mph 4.0 mph 94 % 0.00 in
07:47 63.3 °F 61.3 °F 29.94 in SE 2.0 mph 4.0 mph 93 % 0.00 in
07:52 64.0 °F 62.1 °F 29.95 in ESE 3.0 mph 4.0 mph 93 % 0.00 in
07:57 64.8 °F 62.1 °F 29.95 in SSE 3.0 mph 5.0 mph 91 % 0.00 in
08:02 65.7 °F 62.6 °F 29.95 in SE 2.0 mph 5.0 mph 90 % 0.00 in
08:07 66.0 °F 62.6 °F 29.95 in South 2.0 mph 5.0 mph 89 % 0.00 in
08:12 66.7 °F 63.1 °F 29.95 in SE 2.0 mph 5.0 mph 88 % 0.00 in
08:17 67.5 °F 63.5 °F 29.95 in SE 5.0 mph 5.0 mph 87 % 0.00 in
08:22 68.2 °F 63.5 °F 29.96 in SSE 2.0 mph 6.0 mph 85 % 0.00 in
08:27 68.7 °F 63.7 °F 29.96 in ESE 3.0 mph 6.0 mph 84 % 0.00 in
08:32 69.3 °F 63.9 °F 29.96 in SSE 3.0 mph 6.0 mph 83 % 0.00 in
08:37 69.8 °F 64.0 °F 29.96 in South 5.0 mph 6.0 mph 82 % 0.00 in
08:42 70.3 °F 64.2 °F 29.96 in SSE 6.0 mph 6.0 mph 81 % 0.00 in
08:47 70.7 °F 64.2 °F 29.96 in SSE 3.0 mph 8.0 mph 80 % 0.00 in
08:52 71.1 °F 64.2 °F 29.97 in SE 2.0 mph 8.0 mph 79 % 0.00 in
08:57 71.4 °F 64.6 °F 29.96 in SE 4.0 mph 10.0 mph 79 % 0.00 in
09:02 71.8 °F 64.6 °F 29.96 in SE 4.0 mph 10.0 mph 78 % 0.00 in
09:07 72.1 °F 64.9 °F 29.97 in SSE 5.0 mph 10.0 mph 78 % 0.00 in
09:12 72.5 °F 64.6 °F 29.97 in SE 4.0 mph 10.0 mph 76 % 0.00 in
09:17 72.9 °F 64.8 °F 29.97 in SSE 7.0 mph 10.0 mph 76 % 0.00 in
09:22 73.2 °F 64.8 °F 29.97 in SE 6.0 mph 15.0 mph 75 % 0.00 in
09:27 73.8 °F 64.9 °F 29.97 in South 10.0 mph 15.0 mph 74 % 0.00 in
09:32 74.1 °F 65.3 °F 29.97 in South 6.0 mph 15.0 mph 74 % 0.00 in
09:33 74.1 °F 64.9 °F 29.97 in SSE 7.0 mph 15.0 mph 73 % 0.00 in
09:38 74.5 °F 64.9 °F 29.97 in SSW 8.0 mph 14.0 mph 72 % 0.00 in
09:43 74.7 °F 65.1 °F 29.97 in ESE 4.0 mph 15.0 mph 72 % 0.00 in
09:48 74.8 °F 65.1 °F 29.97 in SW 9.0 mph 15.0 mph 72 % 0.00 in
09:53 75.0 °F 65.3 °F 29.97 in SSW 6.0 mph 15.0 mph 72 % 0.00 in
09:58 75.0 °F 64.6 °F 29.97 in SSE 5.0 mph 13.0 mph 70 % 0.00 in
10:03 75.2 °F 65.1 °F 29.97 in SSW 5.0 mph 15.0 mph 71 % 0.00 in
10:08 75.0 °F 64.6 °F 29.97 in SSW 6.0 mph 15.0 mph 70 % 0.00 in
10:13 75.6 °F 64.8 °F 29.97 in ESE 8.0 mph 17.0 mph 69 % 0.00 in
10:18 75.7 °F 64.4 °F 29.97 in SE 9.0 mph 17.0 mph 68 % 0.00 in
10:23 75.9 °F 64.6 °F 29.97 in SE 12.0 mph 17.0 mph 68 % 0.00 in
10:28 76.5 °F 64.8 °F 29.97 in SE 8.0 mph 16.0 mph 67 % 0.00 in
10:33 76.5 °F 65.1 °F 29.98 in SW 8.0 mph 20.0 mph 68 % 0.00 in
10:38 76.6 °F 64.0 °F 29.98 in South 11.0 mph 20.0 mph 65 % 0.00 in
10:43 76.6 °F 64.4 °F 29.98 in South 6.0 mph 20.0 mph 66 % 0.00 in
10:48 77.0 °F 64.8 °F 29.97 in SSW 9.0 mph 15.0 mph 66 % 0.00 in
10:49 77.2 °F 64.6 °F 29.98 in SSW 13.0 mph 15.0 mph 65 % 0.00 in
10:54 76.8 °F 63.3 °F 29.98 in SSE 8.0 mph 15.0 mph 63 % 0.00 in
10:59 77.0 °F 63.5 °F 29.99 in South 7.0 mph 17.0 mph 63 % 0.00 in
11:04 76.6 °F 63.5 °F 29.99 in South 8.0 mph 17.0 mph 64 % 0.00 in
11:09 76.6 °F 64.0 °F 29.99 in SE 5.0 mph 20.0 mph 65 % 0.00 in
11:14 76.6 °F 64.4 °F 29.99 in West 3.0 mph 20.0 mph 66 % 0.00 in
11:20 77.4 °F 64.8 °F 29.99 in SW 5.0 mph 20.0 mph 65 % 0.00 in
11:25 78.4 °F 64.4 °F 29.99 in SSW 4.0 mph 13.0 mph 62 % 0.00 in
11:30 77.9 °F 63.3 °F 29.99 in SSW 9.0 mph 14.0 mph 61 % 0.00 in
11:35 77.5 °F 64.4 °F 29.99 in SE 7.0 mph 14.0 mph 64 % 0.00 in
11:40 78.1 °F 64.0 °F 29.99 in SSE 10.0 mph 14.0 mph 62 % 0.00 in
11:43 78.1 °F 63.1 °F 29.99 in SE 6.0 mph 17.0 mph 60 % 0.00 in
11:48 78.1 °F 63.5 °F 29.99 in ESE 8.0 mph 17.0 mph 61 % 0.00 in
11:53 78.4 °F 64.4 °F 29.98 in SSW 9.0 mph 17.0 mph 62 % 0.00 in
11:58 79.2 °F 64.6 °F 29.98 in SSW 7.0 mph 15.0 mph 61 % 0.00 in
12:03 79.7 °F 63.7 °F 29.98 in SE 9.0 mph 15.0 mph 58 % 0.00 in
12:08 79.3 °F 64.2 °F 29.98 in South 8.0 mph 15.0 mph 60 % 0.00 in
12:13 79.5 °F 63.9 °F 29.98 in South 9.0 mph 16.0 mph 59 % 0.00 in
12:18 80.1 °F 63.5 °F 29.98 in SSE 7.0 mph 16.0 mph 57 % 0.00 in
12:23 80.4 °F 63.9 °F 29.98 in ESE 9.0 mph 16.0 mph 57 % 0.00 in
12:28 80.8 °F 63.7 °F 29.97 in SE 7.0 mph 15.0 mph 56 % 0.00 in
12:33 81.0 °F 63.3 °F 29.97 in South 7.0 mph 15.0 mph 55 % 0.00 in
12:38 81.0 °F 62.2 °F 29.97 in ESE 10.0 mph 15.0 mph 53 % 0.00 in
12:44 80.8 °F 62.6 °F 29.97 in SE 8.0 mph 15.0 mph 54 % 0.00 in
12:49 80.8 °F 63.1 °F 29.97 in SE 6.0 mph 14.0 mph 55 % 0.00 in
12:54 81.3 °F 64.0 °F 29.97 in SSW 6.0 mph 14.0 mph 56 % 0.00 in
12:59 81.9 °F 64.6 °F 29.96 in SSE 3.0 mph 16.0 mph 56 % 0.00 in
13:04 82.2 °F 62.8 °F 29.96 in SSE 9.0 mph 16.0 mph 52 % 0.00 in
13:09 82.0 °F 62.6 °F 29.96 in South 15.0 mph 17.0 mph 52 % 0.00 in
13:14 81.9 °F 62.4 °F 29.95 in SSW 13.0 mph 17.0 mph 52 % 0.00 in
13:19 81.9 °F 62.4 °F 29.95 in South 9.0 mph 17.0 mph 52 % 0.00 in
13:24 82.0 °F 62.1 °F 29.95 in SSW 11.0 mph 17.0 mph 51 % 0.00 in
13:29 82.2 °F 63.3 °F 29.94 in SE 9.0 mph 17.0 mph 53 % 0.00 in
13:34 82.0 °F 63.7 °F 29.94 in SSE 11.0 mph 17.0 mph 54 % 0.00 in
13:39 82.6 °F 62.1 °F 29.94 in South 10.0 mph 17.0 mph 50 % 0.00 in
13:44 82.6 °F 62.6 °F 29.94 in East 7.0 mph 16.0 mph 51 % 0.00 in
13:49 82.8 °F 63.3 °F 29.94 in SE 8.0 mph 16.0 mph 52 % 0.00 in
13:54 82.6 °F 62.6 °F 29.93 in ESE 7.0 mph 16.0 mph 51 % 0.00 in
13:59 82.9 °F 64.0 °F 29.93 in SSW 6.0 mph 16.0 mph 53 % 0.00 in
14:04 83.1 °F 63.7 °F 29.93 in SE 10.0 mph 16.0 mph 52 % 0.00 in
14:09 83.1 °F 62.6 °F 29.93 in SSE 7.0 mph 18.0 mph 50 % 0.00 in
14:14 83.1 °F 62.6 °F 29.93 in SE 9.0 mph 18.0 mph 50 % 0.00 in
14:19 82.8 °F 63.3 °F 29.92 in East 5.0 mph 18.0 mph 52 % 0.00 in
14:24 82.9 °F 63.5 °F 29.93 in SE 9.0 mph 16.0 mph 52 % 0.00 in
14:29 82.9 °F 64.0 °F 29.92 in SSE 11.0 mph 16.0 mph 53 % 0.00 in
14:34 83.1 °F 63.1 °F 29.92 in South 9.0 mph 16.0 mph 51 % 0.00 in
14:39 82.9 °F 64.0 °F 29.92 in SE 12.0 mph 17.0 mph 53 % 0.00 in
14:44 82.6 °F 63.7 °F 29.92 in SSE 12.0 mph 18.0 mph 53 % 0.00 in
14:50 82.8 °F 63.9 °F 29.92 in SE 6.0 mph 18.0 mph 53 % 0.00 in
14:55 82.8 °F 64.4 °F 29.92 in SSE 14.0 mph 18.0 mph 54 % 0.00 in
15:00 82.8 °F 64.4 °F 29.92 in ESE 9.0 mph 20.0 mph 54 % 0.00 in
15:04 82.8 °F 64.4 °F 29.91 in South 13.0 mph 20.0 mph 54 % 0.00 in
15:10 82.8 °F 64.4 °F 29.91 in SE 11.0 mph 20.0 mph 54 % 0.00 in
15:14 82.6 °F 64.8 °F 29.91 in South 5.0 mph 19.0 mph 55 % 0.00 in
15:20 82.8 °F 64.9 °F 29.91 in South 10.0 mph 17.0 mph 55 % 0.00 in
15:25 82.8 °F 64.4 °F 29.91 in SE 8.0 mph 15.0 mph 54 % 0.00 in
15:30 82.4 °F 64.6 °F 29.90 in SE 10.0 mph 15.0 mph 55 % 0.00 in
15:35 82.2 °F 64.9 °F 29.90 in SSE 9.0 mph 16.0 mph 56 % 0.00 in
15:40 82.4 °F 65.7 °F 29.91 in SSE 6.0 mph 17.0 mph 57 % 0.00 in
15:45 82.8 °F 64.9 °F 29.90 in SE 9.0 mph 17.0 mph 55 % 0.00 in
15:50 82.0 °F 64.8 °F 29.90 in SSE 9.0 mph 19.0 mph 56 % 0.00 in
15:55 81.7 °F 65.5 °F 29.90 in SSE 14.0 mph 19.0 mph 58 % 0.00 in
16:00 81.7 °F 65.5 °F 29.90 in SSE 6.0 mph 19.0 mph 58 % 0.00 in
16:05 82.0 °F 65.3 °F 29.90 in SE 9.0 mph 22.0 mph 57 % 0.00 in
16:10 81.9 °F 65.1 °F 29.90 in SSE 10.0 mph 22.0 mph 57 % 0.00 in
16:15 81.7 °F 64.9 °F 29.89 in ESE 11.0 mph 22.0 mph 57 % 0.00 in
16:20 81.9 °F 65.1 °F 29.89 in ESE 11.0 mph 18.0 mph 57 % 0.00 in
16:25 81.9 °F 65.1 °F 29.89 in ESE 12.0 mph 18.0 mph 57 % 0.00 in
16:30 81.3 °F 65.1 °F 29.89 in South 8.0 mph 19.0 mph 58 % 0.00 in
16:35 81.1 °F 64.4 °F 29.90 in SSE 8.0 mph 19.0 mph 57 % 0.00 in
16:40 80.6 °F 64.4 °F 29.90 in ESE 9.0 mph 19.0 mph 58 % 0.00 in
16:45 80.2 °F 64.0 °F 29.90 in South 9.0 mph 16.0 mph 58 % 0.00 in
16:50 79.9 °F 64.2 °F 29.89 in East 13.0 mph 17.0 mph 59 % 0.00 in
16:55 79.7 °F 64.6 °F 29.89 in ESE 10.0 mph 17.0 mph 60 % 0.00 in
17:00 79.9 °F 64.8 °F 29.89 in SSE 10.0 mph 17.0 mph 60 % 0.00 in
17:05 80.4 °F 65.3 °F 29.89 in South 8.0 mph 17.0 mph 60 % 0.00 in
17:10 80.2 °F 64.6 °F 29.89 in SSE 9.0 mph 16.0 mph 59 % 0.00 in
17:15 79.5 °F 64.4 °F 29.89 in SE 8.0 mph 18.0 mph 60 % 0.00 in
17:20 79.2 °F 64.6 °F 29.90 in SE 5.0 mph 18.0 mph 61 % 0.00 in
17:25 78.8 °F 64.2 °F 29.90 in SSW 6.0 mph 18.0 mph 61 % 0.00 in
17:30 78.8 °F 64.8 °F 29.89 in ESE 13.0 mph 15.0 mph 62 % 0.00 in
17:35 78.6 °F 64.6 °F 29.89 in SE 8.0 mph 18.0 mph 62 % 0.00 in
17:40 78.6 °F 64.6 °F 29.89 in SE 10.0 mph 18.0 mph 62 % 0.00 in
17:45 78.6 °F 64.6 °F 29.89 in SE 7.0 mph 18.0 mph 62 % 0.00 in
17:50 78.6 °F 64.6 °F 29.89 in SSE 6.0 mph 15.0 mph 62 % 0.00 in
17:55 78.6 °F 64.6 °F 29.89 in SSE 11.0 mph 15.0 mph 62 % 0.00 in
18:00 78.3 °F 64.2 °F 29.89 in SE 7.0 mph 15.0 mph 62 % 0.00 in
18:05 78.1 °F 64.4 °F 29.89 in SSE 5.0 mph 15.0 mph 63 % 0.00 in
18:10 77.7 °F 64.6 °F 29.89 in SE 7.0 mph 15.0 mph 64 % 0.00 in
18:15 77.7 °F 64.6 °F 29.89 in SSE 10.0 mph 15.0 mph 64 % 0.00 in
18:20 77.5 °F 64.4 °F 29.89 in East 10.0 mph 15.0 mph 64 % 0.00 in
18:25 77.4 °F 64.8 °F 29.90 in SE 8.0 mph 15.0 mph 65 % 0.00 in
18:30 77.4 °F 64.8 °F 29.90 in SSE 7.0 mph 14.0 mph 65 % 0.00 in
18:35 77.0 °F 64.4 °F 29.90 in SE 6.0 mph 15.0 mph 65 % 0.00 in
18:40 76.8 °F 64.6 °F 29.90 in SSE 13.0 mph 15.0 mph 66 % 0.00 in
18:45 76.6 °F 64.4 °F 29.90 in SE 5.0 mph 15.0 mph 66 % 0.00 in
18:50 76.6 °F 64.9 °F 29.90 in ESE 11.0 mph 15.0 mph 67 % 0.00 in
18:55 76.6 °F 64.9 °F 29.91 in SE 6.0 mph 15.0 mph 67 % 0.00 in
19:00 76.5 °F 64.8 °F 29.91 in ESE 6.0 mph 21.0 mph 67 % 0.00 in
19:05 76.3 °F 64.6 °F 29.91 in ESE 11.0 mph 21.0 mph 67 % 0.00 in
19:10 76.1 °F 64.4 °F 29.91 in ESE 8.0 mph 21.0 mph 67 % 0.00 in
19:15 75.9 °F 64.6 °F 29.91 in South 6.0 mph 14.0 mph 68 % 0.00 in
19:20 75.9 °F 64.6 °F 29.91 in ESE 9.0 mph 14.0 mph 68 % 0.00 in
19:25 75.7 °F 64.8 °F 29.92 in SSW 3.0 mph 14.0 mph 69 % 0.00 in
19:30 75.6 °F 64.8 °F 29.92 in ENE 5.0 mph 13.0 mph 69 % 0.00 in
19:35 75.6 °F 65.1 °F 29.92 in East 3.0 mph 12.0 mph 70 % 0.00 in
19:40 75.4 °F 64.9 °F 29.92 in SSE 8.0 mph 12.0 mph 70 % 0.00 in
19:45 75.4 °F 65.3 °F 29.92 in SSE 7.0 mph 11.0 mph 71 % 0.00 in
19:50 75.4 °F 65.3 °F 29.92 in SSW 8.0 mph 12.0 mph 71 % 0.00 in
19:55 75.2 °F 65.1 °F 29.93 in SE 6.0 mph 13.0 mph 71 % 0.00 in
20:00 75.0 °F 65.3 °F 29.93 in South 3.0 mph 13.0 mph 72 % 0.00 in
20:05 75.0 °F 65.3 °F 29.93 in SE 4.0 mph 13.0 mph 72 % 0.00 in
20:10 75.0 °F 65.3 °F 29.93 in SE 5.0 mph 10.0 mph 72 % 0.00 in
20:15 74.8 °F 65.7 °F 29.93 in ESE 6.0 mph 10.0 mph 73 % 0.00 in
20:20 74.8 °F 65.7 °F 29.93 in South 5.0 mph 13.0 mph 73 % 0.00 in
20:25 74.7 °F 65.8 °F 29.93 in SE 10.0 mph 14.0 mph 74 % 0.00 in
20:30 74.7 °F 65.8 °F 29.93 in SSE 7.0 mph 14.0 mph 74 % 0.00 in
20:35 74.7 °F 65.8 °F 29.92 in SSE 7.0 mph 14.0 mph 74 % 0.00 in
20:40 74.5 °F 65.7 °F 29.92 in East 5.0 mph 12.0 mph 74 % 0.00 in
20:45 74.1 °F 65.7 °F 29.92 in East 13.0 mph 14.0 mph 75 % 0.00 in
20:50 74.1 °F 65.7 °F 29.91 in SE 5.0 mph 16.0 mph 75 % 0.00 in
20:55 73.9 °F 65.5 °F 29.92 in ESE 8.0 mph 16.0 mph 75 % 0.00 in
21:00 73.9 °F 65.5 °F 29.92 in SE 14.0 mph 16.0 mph 75 % 0.00 in
21:05 73.9 °F 65.8 °F 29.93 in SE 2.0 mph 16.0 mph 76 % 0.00 in
21:10 73.9 °F 65.8 °F 29.93 in ESE 15.0 mph 16.0 mph 76 % 0.00 in
21:15 73.9 °F 65.8 °F 29.94 in South 9.0 mph 16.0 mph 76 % 0.00 in
21:20 73.9 °F 65.8 °F 29.94 in East 9.0 mph 15.0 mph 76 % 0.00 in
21:25 73.8 °F 65.7 °F 29.94 in East 8.0 mph 15.0 mph 76 % 0.00 in
21:30 73.8 °F 65.7 °F 29.95 in South 3.0 mph 14.0 mph 76 % 0.00 in
21:35 73.8 °F 65.7 °F 29.95 in ESE 5.0 mph 14.0 mph 76 % 0.00 in
21:40 73.8 °F 65.7 °F 29.95 in SSE 4.0 mph 13.0 mph 76 % 0.00 in
21:45 73.8 °F 66.0 °F 29.95 in ESE 8.0 mph 13.0 mph 77 % 0.00 in
21:50 73.8 °F 66.0 °F 29.94 in SSE 7.0 mph 15.0 mph 77 % 0.00 in
21:55 73.6 °F 65.8 °F 29.94 in SE 8.0 mph 15.0 mph 77 % 0.00 in
22:00 73.6 °F 65.8 °F 29.94 in ESE 8.0 mph 16.0 mph 77 % 0.00 in
22:06 73.6 °F 66.4 °F 29.95 in South 7.0 mph 16.0 mph 78 % 0.00 in
22:11 73.6 °F 66.4 °F 29.95 in SE 6.0 mph 16.0 mph 78 % 0.00 in
22:16 73.4 °F 66.2 °F 29.95 in SW 5.0 mph 14.0 mph 78 % 0.00 in
22:21 73.4 °F 66.2 °F 29.96 in SE 6.0 mph 11.0 mph 78 % 0.00 in
22:26 73.4 °F 66.2 °F 29.96 in SE 7.0 mph 11.0 mph 78 % 0.00 in
22:31 73.2 °F 66.4 °F 29.96 in SSE 6.0 mph 12.0 mph 79 % 0.00 in
22:36 73.2 °F 66.4 °F 29.96 in SSE 9.0 mph 12.0 mph 79 % 0.00 in
22:41 73.2 °F 66.4 °F 29.96 in SSE 6.0 mph 14.0 mph 79 % 0.00 in
22:46 73.2 °F 66.4 °F 29.96 in South 4.0 mph 14.0 mph 79 % 0.00 in
22:51 73.2 °F 66.4 °F 29.97 in East 3.0 mph 14.0 mph 79 % 0.00 in
22:56 73.2 °F 66.4 °F 29.97 in SE 5.0 mph 12.0 mph 79 % 0.00 in
23:01 73.2 °F 66.7 °F 29.97 in South 3.0 mph 11.0 mph 80 % 0.00 in
23:06 73.0 °F 66.6 °F 29.96 in SSE 5.0 mph 12.0 mph 80 % 0.00 in
23:11 73.0 °F 66.6 °F 29.96 in East 5.0 mph 12.0 mph 80 % 0.00 in
23:16 72.9 °F 66.4 °F 29.97 in SE 7.0 mph 12.0 mph 80 % 0.00 in
23:21 72.9 °F 66.4 °F 29.97 in SSE 4.0 mph 11.0 mph 80 % 0.00 in
23:26 72.9 °F 66.4 °F 29.96 in ESE 5.0 mph 11.0 mph 80 % 0.00 in
23:31 72.9 °F 66.7 °F 29.97 in SSW 3.0 mph 11.0 mph 81 % 0.00 in
23:36 72.9 °F 66.7 °F 29.97 in SSE 6.0 mph 9.0 mph 81 % 0.00 in
23:41 72.9 °F 66.7 °F 29.97 in SSE 6.0 mph 9.0 mph 81 % 0.00 in
23:46 72.9 °F 66.7 °F 29.97 in East 8.0 mph 10.0 mph 81 % 0.00 in
23:51 72.9 °F 66.7 °F 29.97 in SE 3.0 mph 12.0 mph 81 % 0.00 in
23:56 72.9 °F 66.7 °F 29.96 in SSE 4.0 mph 12.0 mph 81 % 0.00 in
Spring, Texas: Villages of Bridgestone
Compliments of Weather Underground - 2.75 mb

Script developed by  Jim McMurry - jmcmurry@mwt.net Adapted for the template by  Wim van der Kuil - Leuven-Template.eu

You find our weather info also at:

UK Metoffice

WeatherCloud

Weather Underground

Mid-South Weather Network

AWEKAS

Citizen Weather Observer Program (CWOP)

HAMweather, WeatherForYou, PWS Weather

Equipment we use:

Weather-station
Davis Vantage Vue

Weather-program
Meteohub

Weather-server
Debian 7.9 x86 (Guest)

Provider
DreamHost

Davis Vantage Vue

Meteohub

Debian 7.9 x86 (Guest)

DreamHost